Location: Hains Lake
(37.8540°N, 99.8578°W)
Time: 15:03:48
(UTC+00:00)

Transit 2A Rocket - All Passes

Search period start: 11 April 2021 00:00
Search period end: 21 April 2021 00:00
Orbit: 594 x 908 km, 66.7° (Epoch: 10 April)

Date Brightness Start Highest point End Pass type
(mag) Time Alt. Az. Time Alt. Az. Time Alt. Az.
11 Apr - 00:30:01 10° SW 00:34:21 38° WNW 00:38:29 10° NNE daylight
11 Apr - 07:33:58 10° NNE 07:35:26 11° NE 07:36:54 10° ENE visible
11 Apr - 09:13:57 10° NNW 09:18:28 85° WSW 09:23:19 10° SSE visible
11 Apr - 23:47:01 10° SSW 23:51:42 73° WNW 23:56:07 10° NNE daylight
12 Apr - 08:31:29 10° NNW 08:35:51 50° ENE 08:40:32 10° SE visible
12 Apr - 10:15:20 10° WNW 10:18:01 15° WSW 10:20:47 10° SW night (unlit)
12 Apr - 23:04:31 10° SSW 23:09:08 57° ESE 23:13:28 10° NE daylight
13 Apr - 00:49:19 10° W 00:51:57 15° NW 00:54:31 10° NNW daylight
13 Apr - 07:49:15 10° N 07:53:09 28° NE 07:57:14 10° ESE visible
13 Apr - 09:31:40 10° NW 09:35:36 29° WSW 09:39:47 10° S night (unlit)
13 Apr - 22:22:36 10° S 22:26:39 29° ESE 22:30:29 10° NE daylight
14 Apr - 00:05:15 10° WSW 00:09:06 26° NW 00:12:49 10° N daylight
14 Apr - 07:07:28 10° N 07:10:18 16° NE 07:13:16 10° E visible
14 Apr - 08:48:39 10° NW 08:53:06 55° WSW 08:57:52 10° SSE visible
14 Apr - 21:41:33 10° SE 21:44:14 15° ESE 21:46:49 10° ENE daylight
14 Apr - 23:21:54 10° SW 23:26:23 47° WNW 23:30:38 10° NNE daylight
15 Apr - 08:06:00 10° NNW 08:10:32 77° ENE 08:15:25 10° SSE visible
15 Apr - 22:39:05 10° SSW 22:43:45 88° ESE 22:48:10 10° NNE daylight
16 Apr - 00:26:04 10° NW 00:26:50 10° NW 00:27:38 10° NW daylight
16 Apr - 07:23:37 10° NNW 07:27:53 41° ENE 07:32:26 10° SE visible
16 Apr - 09:06:51 10° WNW 09:10:09 19° WSW 09:13:37 10° SSW night (unlit)
16 Apr - 21:56:47 10° S 22:01:13 44° ESE 22:05:25 10° NE daylight
16 Apr - 23:40:46 10° W 23:43:54 18° NW 23:46:57 10° N daylight
17 Apr - 06:41:31 10° N 06:45:08 23° NE 06:48:56 10° ESE visible
17 Apr - 08:23:30 10° NW 08:27:42 36° WSW 08:32:12 10° S night (unlit)
17 Apr - 21:15:06 10° SSE 21:18:45 23° ESE 21:22:15 10° ENE daylight
17 Apr - 22:57:00 10° WSW 23:01:06 32° NW 23:05:02 10° N daylight
18 Apr - 05:59:58 10° NNE 06:02:16 14° NE 06:04:37 10° ENE visible
18 Apr - 07:40:38 10° NNW 07:45:10 71° WSW 07:50:05 10° SSE visible
18 Apr - 20:34:46 10° SE 20:36:22 12° ESE 20:37:57 10° E daylight
18 Apr - 22:13:52 10° SW 22:18:25 60° WNW 22:22:45 10° NNE daylight
19 Apr - 06:58:05 10° NNW 07:02:35 61° ENE 07:07:26 10° SE visible
19 Apr - 08:42:35 10° W 08:44:40 13° WSW 08:46:50 10° SW night (unlit)
19 Apr - 21:31:13 10° SSW 21:35:50 70° ESE 21:40:11 10° NNE daylight
19 Apr - 23:16:47 10° WNW 23:18:45 13° NW 23:20:43 10° NNW daylight
20 Apr - 06:15:47 10° N 06:19:54 33° ENE 06:24:17 10° ESE visible
20 Apr - 07:58:31 10° NW 08:02:17 24° WSW 08:06:15 10° SSW night (unlit)
20 Apr - 20:49:07 10° S 20:53:19 35° ESE 20:57:19 10° NE daylight
20 Apr - 22:32:21 10° WSW 22:35:52 22° NW 22:39:16 10° N daylight
